カタログに戻る

NINGXIA-1 10

運用中科学LEO
NORAD 49022·PAYLOAD·🇨🇳 China

打ち上げ Jul 9, 2021 から Taiyuan Satellite Launch Center

Loading…

次のパス (今後24時間)

TLE

最新Source: Space-Track

元期: Sep 14, 2026, 22:35 UTC

1 49022U 21064E   26257.94106755 -.00000133  00000-0 -85881-6 0  9994
2 49022  44.9990 180.9410 0008995 326.2646  33.7617 14.08563006266887

AllMySatでNINGXIA-1 10をリアルタイム追跡

Download on the App Store